Regional Weather Roundup
Issued by NWS State College, PA

Home | Current Version | Previous Version | Text Only | Print | Product List | Glossary On
Versions: 1 2 3 4 5 6 7 8 9 10 11 12 13 14 15 16 17 18 19 20 21 22 23 24 25 26 27 28 29 30 31 32 33 34 35 36 37 38 39 40 41 42 43 44 45 46 47 48 49 50
000
ASUS41 KCTP 061910
RWRCTP

REGIONAL WEATHER ROUNDUP
NATIONAL WEATHER SERVICE STATE COLLEGE PA
200 PM EST SAT FEB 06 2016

Note: "fair" indicates few or no clouds below 12,000 feet with no
significant weather and/or obstructions to visibility.

* = STATION THAT DOES NOT REPORT PRECIPITATION /E.G. RAIN...SNOW...ETC/
    THUNDER OR FOG.

PAZ002>004-007>009-013>016-020>023-029>032-062000-
WESTERN PENNSYLVANIA

CITY           SKY/WX    TMP DP  RH WIND       PRES   REMARKS
ERIE           SUNNY     35  22  58 W10       30.23F
MEADVILLE      SUNNY     36  21  54 W9        30.19F
FRANKLIN*      SUNNY     37  19  48 W13       30.21F
NEW CASTLE     FAIR      40  18  41 SW10G18   30.22F
BEAVER COUNTY  NOT AVBL
BUTLER*        SUNNY     39  19  45 SW6G16    30.24F
PITTSBURGH INT PTSUNNY   42  17  36 W10       30.22F
PITTSBURGH     SUNNY     43  18  36 W15G24    30.20F
INDIANA*       MOSUNNY   41  21  45 W13G21    30.23F
LATROBE        MOSUNNY   43  19  39 SW18      30.23F
WASHINGTON CO* SUNNY     43  18  36 SW12G21   30.23F
$$

PAZ004>006-010>012-017>019-024>028-033>037-041-042-045-046-049>053-062000-
CENTRAL PENNSYLVANIA

CITY           SKY/WX    TMP DP  RH WIND       PRES   REMARKS
BRADFORD       SUNNY     35  15  44 SW8G18    30.13F
DUBOIS         PTSUNNY   39  19  44 W14G22    30.16F
CLEARFIELD     PTSUNNY   42  18  37 W14G21    30.18F
JOHNSTOWN      MOSUNNY   38  16  40 W13G25    30.16F
ALTOONA        MOSUNNY   41  17  38 W13       30.20F
STATE COLLEGE  MOSUNNY   41  19  42 SW9G16    30.20F
WILLIAMSPORT   CLOUDY    42  19  39 S9        30.22F
SELINSGROVE    SUNNY     43  21  41 S9        30.26F
FT INDIANTOWN  SUNNY     42  19  39 S10       30.27F
CAPITAL CITY   SUNNY     42  18  37 SW7       30.29F
HARRISBURG     PTSUNNY   42  19  39 SW13      30.29F
YORK           MOSUNNY   40  18  41 S13       30.29F
$$

PAZ038>040-043-044-047-048-054-055-060>062-067>071-062000-
EASTERN PENNSYLVANIA

CITY           SKY/WX    TMP DP  RH WIND       PRES   REMARKS
SCRANTON       MOSUNNY   41  19  41 SW10      30.21F
MOUNT POCONO   MOSUNNY   35  17  47 SW10      30.19F
ALLENTOWN      SUNNY     42  20  41 SW10      30.30F
QUAKERTOWN*    PTCLDY    39  19  45 SW8       30.31F
READING        MOSUNNY   42  21  43 SW13      30.30F
LANCASTER      PTSUNNY   40  20  44 SW8       30.30F
COATESVILLE    CLOUDY    37  21  52 S8        30.32F
POTTSTOWN      MOSUNNY   39  19  44 SW8       30.33F
BLUE BELL        N/A     37  21  52 SW5       30.31F
DOYLESTOWN     MOSUNNY   38  14  37 S8        30.30F
WILLOW GROVE   NOT AVBL
NORTH PHILA    MOSUNNY   41  20  43 S9        30.35F
PHILADELPHIA   PTSUNNY   42  18  37 SW9       30.35F
$$



USA.gov is the U.S. government's official web portal to all federal, state and local government web resources and services.